Location: Ch?enovice
(49.7164°N, 15.2160°E)
Time: 20:03:29
(UTC+00:00)

RESURS DK-1 - Pass Details

Date: 23 May 2024
Orbit: 541 x 547 km, 69.9° (Epoch: 21 June)

Event Time Altitude Azimuth Distance (km) Brightness Sun altitude
Rises 02:04:32 0° 324° (NW) 2,721 6.0 -8.2°
Reaches altitude 10° 02:06:48 10° 318° (NW) 1,825 5.0 -7.9°
Maximum altitude 02:10:40 43° 247° (WSW) 782 2.7 -7.5°
Drops below altitude 10° 02:14:30 10° 175° (S) 1,814 4.6 -7.0°
Sets 02:16:45 0° 169° (S) 2,704 5.5 -6.8°
